• In Netherlands
  • List of Countries
  • For 7 days
  • Water Temperature
  • Satellite Maps
  • Weather Map
  • Weather Widgets
  • user-avatar
    Login

    Hourly Weather Qala i Naw

    Today, 21 January, Saturday

    Time Temperature Precipitation Wind Pressure Humidity
    00:00 +5°C° 0.3 mm 1 mps 684 mmHg 73%
    01:00 +4°C° 0.3 mm 1 mps 684 mmHg 77%
    02:00 +4°C° 0.2 mm 1 mps 684 mmHg 77%
    03:00 +4°C° 0.2 mm 1 mps 683 mmHg 78%
    04:00 +4°C° 0.2 mm 1 mps 683 mmHg 79%
    05:00 +4°C° 0 mm 1 mps 683 mmHg 79%
    06:00 +4°C° 0 mm 1 mps 683 mmHg 78%
    07:00 +4°C° 0 mm 1 mps 683 mmHg 78%
    08:00 +5°C° 0 mm 1 mps 683 mmHg 74%
    09:00 +6°C° 0 mm 1 mps 683 mmHg 70%
    10:00 +8°C° 0 mm 1 mps 684 mmHg 66%
    11:00 +8°C° 0.4 mm 1 mps 683 mmHg 67%
    12:00 +8°C° 0.4 mm 1 mps 683 mmHg 67%
    13:00 +9°C° 0.4 mm 1 mps 682 mmHg 68%
    14:00 +8°C° 1.4 mm 1 mps 682 mmHg 73%
    15:00 +8°C° 1.4 mm 1 mps 682 mmHg 78%
    16:00 +7°C° 1.4 mm 1 mps 681 mmHg 83%
    17:00 +7°C° 1.3 mm 1 mps 682 mmHg 84%
    18:00 +7°C° 1.3 mm 1 mps 682 mmHg 86%
    19:00 +6°C° 1.3 mm 1 mps 682 mmHg 87%
    20:00 +6°C° 1.2 mm 1 mps 682 mmHg 88%
    21:00 +6°C° 1.2 mm 1 mps 682 mmHg 89%
    22:00 +6°C° 1.2 mm 1 mps 682 mmHg 90%
    23:00 +6°C° 0.7 mm 1 mps 682 mmHg 89%

    Tomorrow, 22 January, Sunday

    Time Temperature Precipitation Wind Pressure Humidity
    00:00 +6°C° 0.7 mm 1 mps 682 mmHg 89%
    01:00 +6°C° 0.7 mm 1 mps 682 mmHg 89%
    02:00 +6°C° 0.5 mm 1 mps 681 mmHg 88%
    03:00 +6°C° 0.5 mm 1 mps 681 mmHg 87%
    04:00 +6°C° 0.5 mm 1 mps 681 mmHg 86%
    05:00 +6°C° 0.3 mm 1 mps 681 mmHg 86%
    06:00 +6°C° 0.3 mm 1 mps 681 mmHg 86%
    07:00 +6°C° 0.3 mm 1 mps 681 mmHg 86%
    08:00 +7°C° 0.7 mm 1 mps 682 mmHg 84%
    09:00 +8°C° 0.7 mm 1 mps 682 mmHg 81%
    10:00 +9°C° 0.7 mm 1 mps 682 mmHg 78%
    11:00 +9°C° 0.5 mm 1 mps 682 mmHg 77%
    12:00 +10°C° 0.5 mm 1 mps 681 mmHg 76%
    13:00 +9°C° 0.5 mm 2 mps 680 mmHg 75%
    14:00 +9°C° 0.3 mm 2 mps 680 mmHg 75%
    15:00 +10°C° 0.3 mm 2 mps 680 mmHg 76%
    16:00 +10°C° 0.3 mm 2 mps 680 mmHg 76%
    17:00 +9°C° 0.3 mm 2 mps 680 mmHg 78%
    18:00 +9°C° 0.3 mm 1 mps 680 mmHg 81%
    19:00 +8°C° 0.3 mm 1 mps 680 mmHg 83%
    20:00 +8°C° 0.3 mm 1 mps 680 mmHg 83%
    21:00 +8°C° 0.3 mm 1 mps 680 mmHg 83%
    22:00 +8°C° 0.3 mm 1 mps 681 mmHg 83%
    23:00 +7°C° 1 mm 1 mps 681 mmHg 86%

    Day after tomorrow, 23 January, Monday

    Time Temperature Precipitation Wind Pressure Humidity
    00:00 +7°C° 1 mm 1 mps 681 mmHg 88%
    01:00 +7°C° 1 mm 1 mps 681 mmHg 90%
    02:00 +6°C° 0.6 mm 2 mps 681 mmHg 91%
    03:00 +6°C° 0.6 mm 2 mps 681 mmHg 92%
    04:00 +5°C° 0.6 mm 2 mps 682 mmHg 93%
    05:00 +4°C° 1.7 mm 3 mps 682 mmHg 94%
    06:00 +4°C° 1.7 mm 3 mps 682 mmHg 94%
    07:00 +3°C° 1.7 mm 4 mps 682 mmHg 95%
    08:00 +1°C° 2.5 mm 5 mps 683 mmHg 95%
    09:00 +1°C° 2.5 mm 5 mps 683 mmHg 96%
    10:00 0°C° 2.5 mm 5 mps 684 mmHg 96%
    11:00 0°C° 1.4 mm 5 mps 684 mmHg 96%
    12:00 -1°C° 1.4 mm 5 mps 684 mmHg 97%
    13:00 -1°C° 1.4 mm 4 mps 684 mmHg 97%
    14:00 -2°C° 0.8 mm 4 mps 684 mmHg 97%
    15:00 -2°C° 0.8 mm 4 mps 685 mmHg 96%
    16:00 -2°C° 0.8 mm 4 mps 685 mmHg 96%
    17:00 -2°C° 0.5 mm 4 mps 685 mmHg 96%
    18:00 -3°C° 0.5 mm 4 mps 686 mmHg 96%
    19:00 -3°C° 0.5 mm 4 mps 686 mmHg 96%
    20:00 -2°C° 0.2 mm 3 mps 686 mmHg 96%
    21:00 -2°C° 0.2 mm 3 mps 686 mmHg 96%
    22:00 -4°C° 0.2 mm 3 mps 687 mmHg 96%
    23:00 -4°C° 0.1 mm 3 mps 686 mmHg 96%

    24 January, Tuesday

    Time Temperature Precipitation Wind Pressure Humidity
    00:00 -3°C° 0.1 mm 2 mps 686 mmHg 96%
    01:00 -3°C° 0.1 mm 2 mps 686 mmHg 96%
    02:00 -3°C° 0.1 mm 2 mps 687 mmHg 96%
    03:00 -4°C° 0.1 mm 2 mps 687 mmHg 96%
    04:00 -4°C° 0.1 mm 2 mps 687 mmHg 96%
    05:00 -4°C° 0.1 mm 2 mps 687 mmHg 96%
    06:00 -4°C° 0.1 mm 2 mps 688 mmHg 96%
    07:00 -5°C° 0.1 mm 2 mps 688 mmHg 96%
    08:00 -4°C° 0 mm 2 mps 688 mmHg 93%
    09:00 -4°C° 0 mm 2 mps 688 mmHg 90%
    10:00 -4°C° 0 mm 3 mps 688 mmHg 88%
    11:00 -4°C° 0 mm 3 mps 688 mmHg 86%
    12:00 -4°C° 0 mm 3 mps 687 mmHg 85%
    13:00 -4°C° 0 mm 3 mps 687 mmHg 83%
    14:00 -4°C° 0 mm 3 mps 686 mmHg 85%
    15:00 -4°C° 0 mm 3 mps 686 mmHg 86%
    16:00 -5°C° 0 mm 3 mps 686 mmHg 88%
    17:00 -5°C° 0 mm 2 mps 686 mmHg 89%
    18:00 -6°C° 0 mm 2 mps 686 mmHg 90%
    19:00 -8°C° 0 mm 2 mps 686 mmHg 92%
    20:00 -8°C° 0 mm 2 mps 686 mmHg 92%
    21:00 -7°C° 0 mm 1 mps 685 mmHg 93%
    22:00 -8°C° 0 mm 1 mps 685 mmHg 93%
    23:00 -8°C° 0 mm 1 mps 685 mmHg 93%

    25 January, Wednesday

    Time Temperature Precipitation Wind Pressure Humidity
    00:00 -8°C° 0 mm 1 mps 684 mmHg 93%
    01:00 -8°C° 0 mm 1 mps 684 mmHg 93%
    02:00 -8°C° 0 mm 1 mps 684 mmHg 93%
    03:00 -8°C° 0 mm 1 mps 683 mmHg 93%
    04:00 -9°C° 0 mm 1 mps 683 mmHg 93%
    05:00 -9°C° 0 mm 1 mps 683 mmHg 92%
    06:00 -9°C° 0 mm 1 mps 683 mmHg 92%
    07:00 -9°C° 0 mm 1 mps 683 mmHg 92%
    08:00 -7°C° 0 mm 1 mps 683 mmHg 88%
    09:00 -4°C° 0 mm 1 mps 683 mmHg 84%
    10:00 -2°C° 0 mm 1 mps 684 mmHg 80%
    11:00 -2°C° 0 mm 1 mps 683 mmHg 80%
    12:00 -3°C° 0 mm 2 mps 683 mmHg 81%
    13:00 -2°C° 0 mm 2 mps 682 mmHg 81%
    14:00 -3°C° 0 mm 2 mps 682 mmHg 83%
    15:00 -3°C° 0 mm 2 mps 682 mmHg 85%
    16:00 -3°C° 0 mm 2 mps 681 mmHg 87%
    17:00 -3°C° 0 mm 1 mps 681 mmHg 89%
    18:00 -7°C° 0 mm 1 mps 681 mmHg 90%
    19:00 -9°C° 0 mm 1 mps 680 mmHg 91%
    20:00 -8°C° 0 mm 1 mps 680 mmHg 88%
    21:00 -7°C° 0 mm 1 mps 680 mmHg 85%
    22:00 -8°C° 0 mm 2 mps 681 mmHg 81%
    23:00 -7°C° 0 mm 2 mps 680 mmHg 79%

    26 January, Thursday

    Time Temperature Precipitation Wind Pressure Humidity
    00:00 -7°C° 0 mm 2 mps 680 mmHg 76%
    01:00 -7°C° 0 mm 3 mps 680 mmHg 73%
    02:00 -7°C° 0 mm 3 mps 680 mmHg 73%
    03:00 -7°C° 0 mm 3 mps 680 mmHg 72%
    04:00 -6°C° 0 mm 3 mps 680 mmHg 71%
    05:00 -6°C° 0 mm 3 mps 680 mmHg 70%
    06:00 -7°C° 0 mm 4 mps 681 mmHg 69%
    07:00 -7°C° 0 mm 4 mps 681 mmHg 69%
    08:00 -4°C° 0 mm 4 mps 681 mmHg 69%
    09:00 -1°C° 0 mm 3 mps 682 mmHg 70%
    10:00 +1°C° 0 mm 3 mps 683 mmHg 70%
    11:00 +2°C° 0 mm 3 mps 682 mmHg 73%
    12:00 +3°C° 0 mm 3 mps 682 mmHg 75%
    13:00 +4°C° 0 mm 3 mps 681 mmHg 78%
    14:00 +3°C° 0 mm 3 mps 681 mmHg 74%
    15:00 +3°C° 0 mm 3 mps 681 mmHg 69%
    16:00 +2°C° 0 mm 3 mps 681 mmHg 65%
    17:00 +1°C° 0 mm 3 mps 681 mmHg 63%
    18:00 0°C° 0 mm 3 mps 681 mmHg 60%
    19:00 -2°C° 0 mm 4 mps 681 mmHg 57%
    20:00 -2°C° 0 mm 4 mps 681 mmHg 57%
    21:00 -3°C° 0 mm 4 mps 681 mmHg 57%
    22:00 -3°C° 0 mm 4 mps 681 mmHg 56%
    23:00 -2°C° 0 mm 4 mps 681 mmHg 56%
    Show more